Time,TemperatureF,DewpointF,PressureIn,WindDirection,WindDirectionDegrees,WindSpeedMPH,WindSpeedGustMPH,Humidity,HourlyPrecipIn,Conditions,Clouds,dailyrainin,SolarRadiationWatts/m^2,SoftwareType,DateUTC
2013-02-13 00:00:00,43.1,42.0,29.90,ENE,75,12.7,12.7,96,0.00,RA,,0.00,0.0,WeatherDisplay:10.37,2013-02-13 05:00:00,
2013-02-13 00:05:00,43.1,42.0,29.90,East,87,6.0,6.0,96,0.00,RA,,0.00,0.0,WeatherDisplay:10.37,2013-02-13 05:05:00,
2013-02-13 00:10:00,43.1,41.8,29.90,ESE,102,12.7,12.7,95,0.00,CLR,,0.00,0.0,WeatherDisplay:10.37,2013-02-13 05:10:00,
2013-02-13 00:15:00,43.0,41.7,29.90,ENE,78,5.8,5.8,95,0.00,CLR,,0.00,0.0,WeatherDisplay:10.37,2013-02-13 05:15:00,
2013-02-13 00:20:00,42.9,41.3,29.90,East,96,12.0,12.0,94,0.00,CLR,,0.00,0.0,WeatherDisplay:10.37,2013-02-13 05:20:00,
2013-02-13 00:25:00,42.9,41.3,29.89,East,94,12.0,12.0,94,0.00,CLR,,0.00,0.0,WeatherDisplay:10.37,2013-02-13 05:25:00,
2013-02-13 00:30:00,42.8,41.2,29.89,East,85,9.2,9.2,94,0.00,CLR,,0.00,0.0,WeatherDisplay:10.37,2013-02-13 05:30:00,
2013-02-13 00:35:00,42.8,40.9,29.89,East,82,6.9,6.9,93,0.00,CLR,,0.00,0.0,WeatherDisplay:10.37,2013-02-13 05:35:00,
2013-02-13 00:40:00,42.8,40.9,29.89,East,92,4.6,4.6,93,0.00,CLR,,0.00,0.0,WeatherDisplay:10.37,2013-02-13 05:40:00,
2013-02-13 00:45:00,42.8,40.9,29.89,East,101,12.7,12.7,93,0.00,CLR,,0.00,0.0,WeatherDisplay:10.37,2013-02-13 05:45:00,
2013-02-13 00:50:00,42.8,40.9,29.89,NE,36,7.0,7.0,93,0.00,CLR,,0.00,0.0,WeatherDisplay:10.37,2013-02-13 05:50:00,
2013-02-13 00:55:00,42.8,40.9,29.89,ENE,58,5.8,5.8,93,0.00,CLR,,0.00,0.0,WeatherDisplay:10.37,2013-02-13 05:55:00,
2013-02-13 01:00:00,42.7,40.5,29.88,East,84,6.9,6.9,92,0.00,CLR,,0.00,0.0,WeatherDisplay:10.37,2013-02-13 06:00:00,
2013-02-13 01:05:00,42.8,40.9,29.89,NNE,27,6.9,6.9,93,0.00,CLR,,0.00,0.0,WeatherDisplay:10.37,2013-02-13 06:05:00,
2013-02-13 01:10:00,42.7,40.5,29.88,ESE,103,10.4,10.4,92,0.00,CLR,,0.00,0.0,WeatherDisplay:10.37,2013-02-13 06:10:00,
2013-02-13 01:15:00,42.7,40.5,29.89,ESE,119,3.5,3.5,92,0.00,CLR,,0.00,0.0,WeatherDisplay:10.37,2013-02-13 06:15:00,
2013-02-13 01:20:00,42.7,40.5,29.87,NE,51,5.8,5.8,92,0.00,CLR,,0.00,0.0,WeatherDisplay:10.37,2013-02-13 06:20:00,
2013-02-13 01:25:00,42.7,40.5,29.87,East,90,6.9,6.9,92,0.00,CLR,,0.00,0.0,WeatherDisplay:10.37,2013-02-13 06:25:00,
2013-02-13 01:30:00,42.7,40.8,29.88,East,93,3.0,3.0,93,0.00,CLR,,0.00,0.0,WeatherDisplay:10.37,2013-02-13 06:30:00,
2013-02-13 04:00:00,41.8,40.5,29.84,East,90,5.0,9.0,95,0.00,CLR,,0.04,0.0,WeatherDisplay:10.37,2013-02-13 09:00:00,
2013-02-13 04:10:00,41.7,40.4,29.84,East,82,3.0,9.0,95,0.00,CLR,,0.04,0.0,WeatherDisplay:10.37,2013-02-13 09:10:00,
2013-02-13 04:20:00,41.7,40.6,29.83,ENE,73,1.0,7.0,96,0.00,CLR,,0.04,0.0,WeatherDisplay:10.37,2013-02-13 09:20:00,
2013-02-13 04:30:00,41.6,40.3,29.83,ENE,73,5.0,7.0,95,0.00,CLR,,0.04,0.0,WeatherDisplay:10.37,2013-02-13 09:30:00,
2013-02-13 04:40:00,41.5,40.4,29.82,ENE,78,2.0,10.0,96,0.00,CLR,,0.04,0.0,WeatherDisplay:10.37,2013-02-13 09:40:00,
2013-02-13 04:50:00,41.4,40.3,29.81,East,88,6.0,12.0,96,0.00,CLR,,0.04,0.0,WeatherDisplay:10.37,2013-02-13 09:50:00,
2013-02-13 05:00:00,41.3,40.2,29.82,ESE,107,2.0,10.0,96,0.00,CLR,,0.04,0.0,WeatherDisplay:10.37,2013-02-13 10:00:00,
2013-02-13 05:10:00,41.3,40.2,29.82,ENE,74,5.0,12.0,96,0.00,CLR,,0.04,0.0,WeatherDisplay:10.37,2013-02-13 10:10:00,
2013-02-13 05:20:00,41.3,40.2,29.82,ENE,62,2.0,7.0,96,0.00,CLR,,0.04,0.0,WeatherDisplay:10.37,2013-02-13 10:20:00,
2013-02-13 05:30:00,41.1,40.1,29.81,ENE,72,5.0,9.0,96,0.00,CLR,,0.04,0.0,WeatherDisplay:10.37,2013-02-13 10:30:00,
2013-02-13 05:40:00,41.1,40.0,29.80,East,82,6.0,9.0,96,0.00,RA,,0.05,0.0,WeatherDisplay:10.37,2013-02-13 10:40:00,
2013-02-13 05:50:00,41.1,40.0,29.79,ENE,75,5.0,10.0,96,0.00,CLR,,0.05,0.0,WeatherDisplay:10.37,2013-02-13 10:50:00,
2013-02-13 06:00:00,41.1,40.0,29.80,ENE,68,3.0,12.0,96,0.00,CLR,,0.05,0.0,WeatherDisplay:10.37,2013-02-13 11:00:00,
2013-02-13 06:10:00,41.1,40.0,29.81,East,80,2.0,7.0,96,0.00,CLR,,0.05,0.0,WeatherDisplay:10.37,2013-02-13 11:10:00,
2013-02-13 06:20:00,41.1,40.0,29.81,East,82,6.0,10.0,96,0.00,RA,,0.06,0.0,WeatherDisplay:10.37,2013-02-13 11:20:00,
2013-02-13 06:30:00,41.1,40.3,29.79,East,85,6.0,9.0,97,0.00,CLR,,0.06,0.0,WeatherDisplay:10.37,2013-02-13 11:30:00,
2013-02-13 06:40:00,41.1,40.3,29.81,ENE,66,3.0,7.0,97,0.00,CLR,,0.06,0.0,WeatherDisplay:10.37,2013-02-13 11:40:00,
2013-02-13 06:50:00,41.1,40.3,29.80,ENE,70,6.0,7.0,97,0.00,CLR,,0.06,0.0,WeatherDisplay:10.37,2013-02-13 11:50:00,
2013-02-13 07:00:00,41.2,40.4,29.81,East,79,5.0,9.0,97,0.00,CLR,,0.06,0.0,WeatherDisplay:10.37,2013-02-13 12:00:00,
2013-02-13 07:10:00,41.2,40.4,29.81,East,86,5.0,8.0,97,0.00,CLR,,0.06,0.0,WeatherDisplay:10.37,2013-02-13 12:10:00,
2013-02-13 07:20:00,41.2,40.4,29.80,ENE,78,3.0,10.0,97,0.00,CLR,,0.06,0.0,WeatherDisplay:10.37,2013-02-13 12:20:00,
2013-02-13 07:30:00,41.1,40.3,29.80,ENE,78,1.0,7.0,97,0.00,CLR,,0.06,0.0,WeatherDisplay:10.37,2013-02-13 12:30:00,
2013-02-13 07:40:00,41.1,40.4,29.82,ENE,78,0.0,6.0,97,0.00,CLR,,0.06,0.0,WeatherDisplay:10.37,2013-02-13 12:40:00,
2013-02-13 07:50:00,41.2,40.4,29.81,East,87,0.0,9.0,97,0.00,RA,,0.07,0.0,WeatherDisplay:10.37,2013-02-13 12:50:00,
2013-02-13 08:00:00,41.2,40.4,29.80,East,93,5.0,12.0,97,0.00,CLR,,0.07,5.0,WeatherDisplay:10.37,2013-02-13 13:00:00,
2013-02-13 08:10:00,41.2,40.4,29.82,East,89,1.0,6.0,97,0.00,CLR,,0.07,5.0,WeatherDisplay:10.37,2013-02-13 13:10:00,
2013-02-13 08:20:00,41.3,40.5,29.82,East,90,1.0,7.0,97,0.00,CLR,,0.07,7.0,WeatherDisplay:10.37,2013-02-13 13:20:00,
2013-02-13 08:30:00,41.3,40.5,29.81,East,90,2.0,5.0,97,0.00,CLR,,0.07,12.0,WeatherDisplay:10.37,2013-02-13 13:30:00,
2013-02-13 08:40:00,41.4,40.6,29.81,East,90,2.0,5.0,97,0.00,CLR,,0.07,18.0,WeatherDisplay:10.37,2013-02-13 13:40:00,
2013-02-13 08:50:00,41.4,40.6,29.82,East,90,1.0,5.0,97,0.01,RA,,0.09,21.0,WeatherDisplay:10.37,2013-02-13 13:50:00,
2013-02-13 09:00:00,41.5,40.7,29.81,East,90,3.0,5.0,97,0.00,OVC,,0.09,30.0,WeatherDisplay:10.37,2013-02-13 14:00:00,
2013-02-13 09:10:00,41.5,40.7,29.81,East,90,0.0,6.0,97,0.00,OVC,,0.09,23.0,WeatherDisplay:10.37,2013-02-13 14:10:00,
2013-02-13 09:30:00,41.6,40.9,29.82,East,90,0.0,6.0,97,0.00,OVC,,0.09,30.0,WeatherDisplay:10.37,2013-02-13 14:30:00,
2013-02-13 09:40:00,41.7,40.9,29.80,East,90,3.0,7.0,97,0.00,OVC,,0.09,77.0,WeatherDisplay:10.37,2013-02-13 14:40:00,
2013-02-13 09:50:00,41.9,41.1,29.81,East,81,2.0,9.0,97,0.00,OVC,,0.09,54.0,WeatherDisplay:10.37,2013-02-13 14:50:00,
2013-02-13 10:00:00,41.9,41.1,29.82,East,81,0.0,1.0,97,0.00,OVC,,0.09,76.0,WeatherDisplay:10.37,2013-02-13 15:00:00,
2013-02-13 10:10:00,42.0,41.2,29.80,East,81,0.0,5.0,97,0.00,OVC,,0.09,84.0,WeatherDisplay:10.37,2013-02-13 15:10:00,
2013-02-13 10:20:00,42.2,41.4,29.82,NNW,339,1.0,7.0,97,0.00,OVC,,0.09,69.0,WeatherDisplay:10.37,2013-02-13 15:20:00,
2013-02-13 10:30:00,42.2,41.4,29.81,NW,313,1.0,4.0,97,0.00,RA,,0.10,47.0,WeatherDisplay:10.37,2013-02-13 15:30:00,
2013-02-13 10:40:00,42.3,41.5,29.81,NW,313,0.0,4.0,97,0.00,OVC,,0.10,62.0,WeatherDisplay:10.37,2013-02-13 15:40:00,
2013-02-13 10:50:00,42.3,41.5,29.83,NW,313,0.0,4.0,97,0.00,OVC,,0.10,51.0,WeatherDisplay:10.37,2013-02-13 15:50:00,
2013-02-13 11:00:00,42.4,41.6,29.82,NW,313,2.0,5.0,97,0.00,OVC,,0.10,67.0,WeatherDisplay:10.37,2013-02-13 16:00:00,
2013-02-13 11:10:00,42.4,41.6,29.83,NW,313,2.0,3.0,97,0.00,OVC,,0.10,42.0,WeatherDisplay:10.37,2013-02-13 16:10:00,
2013-02-13 11:20:00,42.5,41.7,29.83,NW,313,2.0,4.0,97,0.00,OVC,,0.10,51.0,WeatherDisplay:10.37,2013-02-13 16:20:00,
2013-02-13 11:30:00,42.6,41.8,29.81,NW,313,0.0,3.0,97,0.00,RA,,0.11,49.0,WeatherDisplay:10.37,2013-02-13 16:30:00,
2013-02-13 11:40:00,42.6,41.8,29.81,NW,313,0.0,0.0,97,0.00,OVC,,0.11,65.0,WeatherDisplay:10.37,2013-02-13 16:40:00,
2013-02-13 11:50:00,42.8,42.0,29.82,NW,313,0.0,4.0,97,0.00,OVC,,0.11,53.0,WeatherDisplay:10.37,2013-02-13 16:50:00,
2013-02-13 12:00:00,42.9,42.1,29.82,NW,313,0.0,3.0,97,0.00,OVC,,0.11,37.0,WeatherDisplay:10.37,2013-02-13 17:00:00,
2013-02-13 12:10:00,43.0,42.3,29.81,NW,313,0.0,4.0,97,0.00,OVC,,0.11,54.0,WeatherDisplay:10.37,2013-02-13 17:10:00,
2013-02-13 12:20:00,43.5,43.0,29.81,NW,313,0.0,5.0,98,0.00,OVC,,0.11,91.0,WeatherDisplay:10.37,2013-02-13 17:20:00,
2013-02-13 12:30:00,44.1,43.6,29.81,NW,306,3.0,6.0,98,0.00,CLR,,0.11,153.0,WeatherDisplay:10.37,2013-02-13 17:30:00,
2013-02-13 12:40:00,44.8,44.3,29.80,NW,306,2.0,6.0,98,0.00,CLR,,0.11,167.0,WeatherDisplay:10.37,2013-02-13 17:40:00,
2013-02-13 12:50:00,45.2,44.7,29.80,NW,305,2.0,9.0,98,0.00,CLR,,0.11,65.0,WeatherDisplay:10.37,2013-02-13 17:50:00,
2013-02-13 13:00:00,45.4,44.9,29.80,West,262,8.0,14.0,98,0.00,CLR,,0.11,104.0,WeatherDisplay:10.37,2013-02-13 18:00:00,
2013-02-13 13:10:00,46.4,45.6,29.80,WNW,282,14.0,20.0,97,0.00,CLR,,0.11,193.0,WeatherDisplay:10.37,2013-02-13 18:10:00,
2013-02-13 13:20:00,47.1,44.9,29.80,WNW,282,22.0,30.0,92,0.00,CLR,,0.11,229.0,WeatherDisplay:10.37,2013-02-13 18:20:00,
2013-02-13 13:30:00,47.4,44.6,29.80,WNW,283,9.0,29.0,90,0.00,CLR,,0.11,209.0,WeatherDisplay:10.37,2013-02-13 18:30:00,
2013-02-13 13:40:00,47.3,44.2,29.79,WNW,287,17.0,25.0,89,0.00,CLR,,0.11,251.0,WeatherDisplay:10.37,2013-02-13 18:40:00,
2013-02-13 13:50:00,47.3,43.9,29.79,West,272,9.0,25.0,88,0.00,CLR,,0.11,206.0,WeatherDisplay:10.37,2013-02-13 18:50:00,
2013-02-13 14:00:00,47.0,43.7,29.80,West,279,10.0,20.0,88,0.00,BKN,,0.11,65.0,WeatherDisplay:10.37,2013-02-13 19:00:00,
2013-02-13 14:10:00,46.4,42.7,29.80,WNW,292,16.0,23.0,87,0.00,BKN,,0.11,67.0,WeatherDisplay:10.37,2013-02-13 19:10:00,
2013-02-13 14:20:00,45.8,42.7,29.80,WNW,288,13.0,26.0,89,0.00,BKN,,0.11,53.0,WeatherDisplay:10.37,2013-02-13 19:20:00,
2013-02-13 14:30:00,45.4,42.3,29.80,West,279,18.0,27.0,89,0.00,BKN,,0.11,46.0,WeatherDisplay:10.37,2013-02-13 19:30:00,
2013-02-13 14:40:00,45.0,42.5,29.80,West,273,16.0,23.0,91,0.00,BKN,,0.11,67.0,WeatherDisplay:10.37,2013-02-13 19:40:00,
2013-02-13 14:50:00,44.9,42.4,29.80,West,271,13.0,23.0,91,0.00,BKN,,0.11,62.0,WeatherDisplay:10.37,2013-02-13 19:50:00,
2013-02-13 15:00:00,44.8,42.0,29.81,WNW,293,17.0,24.0,90,0.00,BKN,,0.11,40.0,WeatherDisplay:10.37,2013-02-13 20:00:00,
2013-02-13 15:10:00,44.2,41.5,29.81,WNW,296,21.0,27.0,90,0.00,BKN,,0.11,39.0,WeatherDisplay:10.37,2013-02-13 20:10:00,
2013-02-13 15:20:00,44.1,41.9,29.81,WNW,284,12.0,22.0,92,0.00,SCT,,0.11,255.0,WeatherDisplay:10.37,2013-02-13 20:20:00,
2013-02-13 15:30:00,44.9,42.4,29.82,WNW,285,7.0,17.0,91,0.00,BKN,,0.11,135.0,WeatherDisplay:10.37,2013-02-13 20:30:00,
2013-02-13 15:40:00,45.0,42.0,29.82,WNW,295,12.0,16.0,89,0.00,BKN,,0.11,53.0,WeatherDisplay:10.37,2013-02-13 20:40:00,
2013-02-13 15:50:00,44.9,41.0,29.82,WNW,292,13.0,18.0,86,0.00,BKN,,0.11,37.0,WeatherDisplay:10.37,2013-02-13 20:50:00,
2013-02-13 16:00:00,44.5,40.9,29.82,WNW,292,10.0,23.0,87,0.00,BKN,,0.11,53.0,WeatherDisplay:10.37,2013-02-13 21:00:00,
2013-02-13 16:10:00,44.1,40.8,29.83,WNW,298,10.0,22.0,88,0.00,BKN,,0.11,63.0,WeatherDisplay:10.37,2013-02-13 21:10:00,
2013-02-13 16:20:00,43.8,41.3,29.84,West,278,7.0,18.0,91,0.00,BKN,,0.11,42.0,WeatherDisplay:10.37,2013-02-13 21:20:00,
2013-02-13 16:30:00,43.5,40.7,29.84,West,277,15.0,21.0,90,0.00,OVC,,0.11,18.0,WeatherDisplay:10.37,2013-02-13 21:30:00,
2013-02-13 16:40:00,43.4,40.9,29.84,West,277,9.0,18.0,91,0.00,BKN,,0.11,37.0,WeatherDisplay:10.37,2013-02-13 21:40:00,
2013-02-13 16:50:00,43.4,40.6,29.84,West,279,14.0,21.0,90,0.00,OVC,,0.11,33.0,WeatherDisplay:10.37,2013-02-13 21:50:00,
2013-02-13 17:00:00,43.4,40.9,29.85,West,276,15.0,20.0,91,0.00,CLR,,0.11,33.0,WeatherDisplay:10.37,2013-02-13 22:00:00,
2013-02-13 17:10:00,43.0,40.8,29.85,WNW,282,5.0,18.0,92,0.00,RA,,0.12,12.0,WeatherDisplay:10.37,2013-02-13 22:10:00,
2013-02-13 17:20:00,42.7,40.8,29.85,WNW,289,9.0,14.0,93,0.00,CLR,,0.12,11.0,WeatherDisplay:10.37,2013-02-13 22:20:00,
2013-02-13 17:30:00,42.7,40.5,29.87,WNW,293,10.0,18.0,92,0.00,CLR,,0.12,7.0,WeatherDisplay:10.37,2013-02-13 22:30:00,
2013-02-13 17:40:00,42.8,40.6,29.88,WNW,302,13.0,20.0,92,0.00,CLR,,0.12,14.0,WeatherDisplay:10.37,2013-02-13 22:40:00,
2013-02-13 17:50:00,42.8,39.8,29.87,WNW,302,15.0,21.0,89,0.00,CLR,,0.12,11.0,WeatherDisplay:10.37,2013-02-13 22:50:00,
2013-02-13 18:00:00,42.7,39.4,29.88,WNW,298,14.0,21.0,88,0.00,CLR,,0.12,0.0,WeatherDisplay:10.37,2013-02-13 23:00:00,
2013-02-13 18:10:00,42.4,39.7,29.89,NW,311,10.0,20.0,90,0.00,CLR,,0.12,0.0,WeatherDisplay:10.37,2013-02-13 23:10:00,
2013-02-13 18:20:00,42.2,38.3,29.89,WNW,289,15.0,22.0,86,0.00,CLR,,0.12,0.0,WeatherDisplay:10.37,2013-02-13 23:20:00,
2013-02-13 18:30:00,41.9,38.4,29.90,NW,314,7.0,20.0,87,0.00,CLR,,0.12,0.0,WeatherDisplay:10.37,2013-02-13 23:30:00,
2013-02-13 18:40:00,41.7,39.0,29.90,WNW,288,9.0,15.0,90,0.00,CLR,,0.12,0.0,WeatherDisplay:10.37,2013-02-13 23:40:00,
2013-02-13 18:50:00,41.5,37.9,29.91,WNW,295,8.0,15.0,87,0.00,CLR,,0.12,0.0,WeatherDisplay:10.37,2013-02-13 23:50:00,
2013-02-13 19:00:00,41.5,37.6,29.91,WNW,302,7.0,14.0,86,0.00,CLR,,0.12,0.0,WeatherDisplay:10.37,2013-02-14 00:00:00,
2013-02-13 19:10:00,41.4,36.3,29.92,NW,320,2.0,17.0,82,0.00,CLR,,0.12,0.0,WeatherDisplay:10.37,2013-02-14 00:10:00,
2013-02-13 19:20:00,40.9,35.5,29.92,NW,319,5.0,14.0,81,0.00,CLR,,0.12,0.0,WeatherDisplay:10.37,2013-02-14 00:20:00,
2013-02-13 19:30:00,40.5,35.4,29.93,NW,313,9.0,16.0,82,0.00,CLR,,0.12,0.0,WeatherDisplay:10.37,2013-02-14 00:30:00,
2013-02-13 19:40:00,40.4,35.0,29.93,NW,316,8.0,16.0,81,0.00,CLR,,0.12,0.0,WeatherDisplay:10.37,2013-02-14 00:40:00,
2013-02-13 19:50:00,40.4,35.0,29.93,North,349,8.0,20.0,81,0.00,CLR,,0.12,0.0,WeatherDisplay:10.37,2013-02-14 00:50:00,
2013-02-13 19:58:00,40.2,34.5,29.94,NNE,28,18.4,0.0,80,0.00,CLR,,0.12,0.0,WeatherDisplay:10.37,2013-02-14 00:58:00,
2013-02-13 20:03:00,40.1,34.4,29.95,NE,36,12.7,12.7,80,0.00,RA,,0.12,0.0,WeatherDisplay:10.37,2013-02-14 01:03:00,
2013-02-13 20:08:00,39.9,34.2,29.96,NNE,21,21.9,21.9,80,0.00,RA,,0.12,0.0,WeatherDisplay:10.37,2013-02-14 01:08:00,
2013-02-13 20:13:00,40.0,34.0,29.95,West,273,16.1,16.1,79,0.00,CLR,,0.12,0.0,WeatherDisplay:10.37,2013-02-14 01:13:00,
2013-02-13 20:18:00,40.0,34.3,29.95,NNW,345,11.5,11.5,80,0.00,CLR,,0.12,0.0,WeatherDisplay:10.37,2013-02-14 01:18:00,
2013-02-13 20:23:00,39.8,33.8,29.95,North,355,11.5,11.5,79,0.00,CLR,,0.12,0.0,WeatherDisplay:10.37,2013-02-14 01:23:00,
2013-02-13 20:28:00,39.8,34.1,29.95,NNW,332,13.8,13.8,80,0.00,CLR,,0.12,0.0,WeatherDisplay:10.37,2013-02-14 01:28:00,
2013-02-13 20:33:00,39.6,33.9,29.95,NW,309,12.7,12.7,80,0.00,CLR,,0.12,0.0,WeatherDisplay:10.37,2013-02-14 01:33:00,
2013-02-13 20:38:00,39.5,34.2,29.95,NW,313,12.7,12.7,81,0.00,CLR,,0.12,0.0,WeatherDisplay:10.37,2013-02-14 01:38:00,
2013-02-13 20:43:00,39.4,34.1,29.94,North,355,15.0,15.0,81,0.00,CLR,,0.12,0.0,WeatherDisplay:10.37,2013-02-14 01:43:00,
2013-02-13 20:48:00,39.4,33.7,29.94,NNW,340,17.3,17.3,80,0.00,CLR,,0.12,0.0,WeatherDisplay:10.37,2013-02-14 01:48:00,
2013-02-13 20:53:00,39.3,34.0,29.94,NNW,340,17.3,17.3,81,0.00,CLR,,0.12,0.0,WeatherDisplay:10.37,2013-02-14 01:53:00,
2013-02-13 20:58:00,39.3,34.0,29.94,North,360,21.9,21.9,81,0.00,CLR,,0.12,0.0,WeatherDisplay:10.37,2013-02-14 01:58:00,
2013-02-13 21:03:00,39.1,34.1,29.95,NNW,341,22.0,22.0,82,0.00,CLR,,0.12,0.0,WeatherDisplay:10.37,2013-02-14 02:03:00,
2013-02-13 21:08:00,39.1,34.1,29.95,NNW,340,15.0,15.0,82,0.00,CLR,,0.12,0.0,WeatherDisplay:10.37,2013-02-14 02:08:00,
2013-02-13 21:13:00,38.8,34.1,29.95,North,349,13.8,13.8,83,0.00,CLR,,0.12,0.0,WeatherDisplay:10.37,2013-02-14 02:13:00,
2013-02-13 21:18:00,38.7,34.0,29.96,NNW,338,19.6,19.6,83,0.00,CLR,,0.12,0.0,WeatherDisplay:10.37,2013-02-14 02:18:00,
2013-02-13 21:23:00,38.7,34.0,29.96,NW,319,13.8,13.8,83,0.00,CLR,,0.12,0.0,WeatherDisplay:10.37,2013-02-14 02:23:00,
2013-02-13 21:28:00,38.6,33.9,29.96,NNW,346,17.3,17.3,83,0.00,CLR,,0.12,0.0,WeatherDisplay:10.37,2013-02-14 02:28:00,
2013-02-13 21:33:00,38.5,33.8,29.96,NNW,346,17.3,17.3,83,0.00,CLR,,0.12,0.0,WeatherDisplay:10.37,2013-02-14 02:33:00,
2013-02-13 21:38:00,38.4,33.7,29.96,NNW,338,15.0,15.0,83,0.00,CLR,,0.12,0.0,WeatherDisplay:10.37,2013-02-14 02:38:00,
2013-02-13 21:44:00,38.2,33.5,29.96,NNW,346,19.6,19.6,83,0.00,CLR,,0.12,0.0,WeatherDisplay:10.37,2013-02-14 02:44:00,
2013-02-13 21:49:00,38.2,33.2,29.96,NW,315,15.0,15.0,82,0.00,CLR,,0.12,0.0,WeatherDisplay:10.37,2013-02-14 02:49:00,
2013-02-13 21:54:00,38.2,33.2,29.96,NNW,340,10.4,10.4,82,0.00,CLR,,0.12,0.0,WeatherDisplay:10.37,2013-02-14 02:54:00,
2013-02-13 21:59:00,38.2,32.9,29.96,NNW,341,15.0,15.0,81,0.00,CLR,,0.12,0.0,WeatherDisplay:10.37,2013-02-14 02:59:00,
2013-02-13 22:04:00,38.2,32.9,29.96,North,349,13.8,13.8,81,0.00,CLR,,0.12,0.0,WeatherDisplay:10.37,2013-02-14 03:04:00,
2013-02-13 22:09:00,38.2,32.9,29.97,North,350,19.6,19.6,81,0.00,CLR,,0.12,0.0,WeatherDisplay:10.37,2013-02-14 03:09:00,
2013-02-13 22:14:00,38.2,32.9,29.97,NNW,336,18.4,18.4,81,0.00,CLR,,0.12,0.0,WeatherDisplay:10.37,2013-02-14 03:14:00,
2013-02-13 22:19:00,38.3,32.7,29.97,NNW,334,11.5,11.7,80,0.00,CLR,,0.12,0.0,WeatherDisplay:10.37,2013-02-14 03:19:00,
2013-02-13 22:24:00,38.3,33.0,29.97,NNW,340,17.3,17.3,81,0.00,CLR,,0.12,0.0,WeatherDisplay:10.37,2013-02-14 03:24:00,
2013-02-13 22:29:00,38.1,32.8,29.98,NNW,338,20.7,20.7,81,0.00,CLR,,0.12,0.0,WeatherDisplay:10.37,2013-02-14 03:29:00,
2013-02-13 22:34:00,38.0,33.0,29.98,NW,313,11.5,11.5,82,0.00,CLR,,0.12,0.0,WeatherDisplay:10.37,2013-02-14 03:34:00,
2013-02-13 22:39:00,37.9,32.9,29.98,North,350,14.0,14.0,82,0.00,CLR,,0.12,0.0,WeatherDisplay:10.37,2013-02-14 03:39:00,
2013-02-13 22:44:00,37.9,32.9,29.98,North,5,12.7,12.7,82,0.00,CLR,,0.12,0.0,WeatherDisplay:10.37,2013-02-14 03:44:00,
2013-02-13 22:49:00,37.8,33.1,29.98,NNW,345,13.8,13.8,83,0.00,CLR,,0.12,0.0,WeatherDisplay:10.37,2013-02-14 03:49:00,
2013-02-13 22:54:00,37.8,32.8,29.98,NNW,342,18.4,18.4,82,0.00,CLR,,0.12,0.0,WeatherDisplay:10.37,2013-02-14 03:54:00,
2013-02-13 22:59:00,37.9,32.9,29.98,NNW,336,11.5,11.5,82,0.00,CLR,,0.12,0.0,WeatherDisplay:10.37,2013-02-14 03:59:00,
2013-02-13 23:04:00,37.9,33.2,29.98,NNW,342,21.9,21.9,83,0.00,CLR,,0.12,0.0,WeatherDisplay:10.37,2013-02-14 04:04:00,
2013-02-13 23:09:00,37.9,33.5,29.99,NNW,344,24.2,24.2,84,0.00,CLR,,0.12,0.0,WeatherDisplay:10.37,2013-02-14 04:09:00,
2013-02-13 23:14:00,37.9,33.5,29.99,North,5,15.0,15.0,84,0.00,CLR,,0.12,0.0,WeatherDisplay:10.37,2013-02-14 04:14:00,
2013-02-13 23:19:00,37.8,33.4,29.99,NNW,348,15.0,15.0,84,0.00,CLR,,0.12,0.0,WeatherDisplay:10.37,2013-02-14 04:19:00,
2013-02-13 23:24:00,37.8,33.7,29.99,NW,325,11.5,11.5,85,0.00,CLR,,0.12,0.0,WeatherDisplay:10.37,2013-02-14 04:24:00,
2013-02-13 23:29:00,37.8,33.4,29.99,NNW,329,16.1,16.1,84,0.00,CLR,,0.12,0.0,WeatherDisplay:10.37,2013-02-14 04:29:00,
2013-02-13 23:34:00,37.8,33.4,29.99,NW,321,18.4,18.4,84,0.00,CLR,,0.12,0.0,WeatherDisplay:10.37,2013-02-14 04:34:00,
2013-02-13 23:39:00,37.8,33.4,29.99,NW,313,21.9,21.9,84,0.00,CLR,,0.12,0.0,WeatherDisplay:10.37,2013-02-14 04:39:00,
2013-02-13 23:44:00,37.8,33.4,29.99,NNW,347,19.6,19.6,84,0.00,CLR,,0.12,0.0,WeatherDisplay:10.37,2013-02-14 04:44:00,
2013-02-13 23:49:00,37.9,33.5,29.99,NNW,347,15.0,15.0,84,0.00,CLR,,0.12,0.0,WeatherDisplay:10.37,2013-02-14 04:49:00,
2013-02-13 23:54:00,37.9,33.5,29.99,North,355,22.0,22.0,84,0.00,CLR,,0.12,0.0,WeatherDisplay:10.37,2013-02-14 04:54:00,
2013-02-13 23:59:00,37.9,33.5,29.99,NNW,348,19.6,19.6,84,0.00,CLR,,0.12,0.0,WeatherDisplay:10.37,2013-02-14 04:59:00,